Regional Weather Roundup
Issued by NWS

Home | Current Version | Previous Version | Graphics & Text | Print | Product List | Glossary On
Versions: 1 2 3 4 5 6 7 8 9 10 11 12 13 14 15 16 17 18 19 20 21 22 23 24 25 26 27 28 29 30 31 32 33 34 35 36 37 38 39 40 41 42 43 44 45 46 47 48 49 50
487
ASUS43 KBIS 241410
RWRND

NORTH DAKOTA REGIONAL WEATHER ROUNDUP
NATIONAL WEATHER SERVICE BISMARCK ND
900 AM CDT SUN JUL 24 2016

NOTE: "FAIR" INDICATES FEW OR NO CLOUDS BELOW 12,000 FEET WITH NO
SIGNIFICANT WEATHER AND/OR OBSTRUCTIONS TO VISIBILITY.


NDZ001>003-009>011-017-241500-
NORTHWEST NORTH DAKOTA

CITY           SKY/WX    TMP DP  RH WIND       PRES   REMARKS
WILLISTON      SUNNY     65  54  67 SW6       30.04R
MINOT          SUNNY     71  56  58 W14       29.97S
MINOT AFB      SUNNY     67  56  68 W17       29.96R
$$

NDZ018>021-031>035-040>046-241500-
SOUTHWEST NORTH DAKOTA

CITY           SKY/WX    TMP DP  RH WIND       PRES   REMARKS
BISMARCK       SUNNY     68  57  68 W7        30.02R
DICKINSON      SUNNY     66  53  63 W9        30.06R
GARRISON         N/A     67  58  72 NW13      30.00S
HETTINGER ARPT MOSUNNY   66  53  63 W6        30.11R
$$

NDZ004>008-012>016-024-026-027-054-241500-
NORTHEAST NORTH DAKOTA

CITY           SKY/WX    TMP DP  RH WIND       PRES   REMARKS
GRAND FORKS    MOSUNNY   70  62  76 W12       29.84S
GRND FRKS AFB  SUNNY     71  63  75 W12       29.85S
DEVILS LAKE    SUNNY     67  59  75 W16       29.90S
$$

NDZ022-023-025-028>030-036>039-047>053-241500-
SOUTHEAST NORTH DAKOTA

CITY           SKY/WX    TMP DP  RH WIND       PRES   REMARKS
FARGO          SUNNY     70  62  76 W12       29.89R
JAMESTOWN      SUNNY     69  60  73 NW13      29.94S
$$





USA.gov is the U.S. government's official web portal to all federal, state and local government web resources and services.